This is the latest recevied weather packets stored in our database for station/object SR6WXJG. If no packets are shown the sender has not sent any weather packets the latest 1 day(s).
| Time | Temp. | Humidity | Pressure | Rain* | Wind** | Luminosity | Snow |
|---|---|---|---|---|---|---|---|
| 1836274353 | 14.44° C | 83% | 1023 hPa | 0 mm | 1.79 m/s, 158° | - | - |
| 1836274202 | 14.44° C | 83% | 1023 hPa | 0 mm | 1.79 m/s, 158° | - | - |
| 1778018760 | 15° C | 83% | 1006 hPa | 0 mm | 3.13 m/s, 254° | - | - |
| 1778017859 | 15° C | 87% | 1006 hPa | 0 mm | 3.13 m/s, 254° | - | - |
| 1778016959 | 15° C | 87% | 1006 hPa | 0 mm | 3.13 m/s, 254° | - | - |
| 1778016065 | 15.56° C | 81% | 1006 hPa | 0 mm | 1.79 m/s, 151° | - | - |
| 1778015158 | 15.56° C | 78% | 1006 hPa | 0 mm | 1.79 m/s, 151° | - | - |
| 1778014258 | 16.11° C | 83% | 1005 hPa | 0 mm | 1.79 m/s, 151° | - | - |
| 1778013357 | 16.11° C | 78% | 1005 hPa | 0 mm | 1.79 m/s, 151° | - | - |
| 1778012457 | 16.67° C | 68% | 1005 hPa | 0 mm | 2.24 m/s, 71° | - | - |
| 1778011557 | 16.67° C | 68% | 1005 hPa | 0 mm | 2.24 m/s, 71° | - | - |
| 1778010656 | 16.67° C | 78% | 1004 hPa | 0 mm | 2.24 m/s, 71° | - | - |
| 1778009756 | 17.22° C | 77% | 1004 hPa | 0 mm | 2.24 m/s, 71° | - | - |
| 1778008855 | 17.22° C | 66% | 1004 hPa | 0 mm | 0.89 m/s, 332° | - | - |
| 1778007955 | 18.33° C | 74% | 1004 hPa | 0 mm | 0.89 m/s, 332° | - | - |
| 1778007054 | 18.33° C | 74% | 1004 hPa | 0 mm | 0.89 m/s, 332° | - | - |
| 1778006154 | 18.33° C | 74% | 1004 hPa | 0 mm | 5.81 m/s, 290° | - | - |
| 1778005254 | 19.44° C | 60% | 1004 hPa | 0 mm | 6.26 m/s, 252° | - | - |
| 1778004353 | 19.44° C | 69% | 1004 hPa | 0 mm | 6.26 m/s, 252° | - | - |
| 1778003453 | 19.44° C | 69% | 1004 hPa | 0 mm | 6.26 m/s, 252° | - | - |
| 1778002553 | 20° C | 67% | 1004 hPa | 0.51 mm | 6.26 m/s, 252° | - | - |
| 1778001652 | 21.11° C | 54% | 1004 hPa | 0.51 mm | 1.79 m/s, 126° | - | - |
| 1778000752 | 21.11° C | 54% | 1004 hPa | 0.25 mm | 1.79 m/s, 126° | - | - |
| 1777999852 | 21.11° C | 60% | 1003 hPa | 0.51 mm | 1.79 m/s, 126° | - | - |
| 1777998951 | 21.67° C | 58% | 1003 hPa | 0.76 mm | 1.79 m/s, 126° | - | - |
* Rain latest hour (hover to see other rain measurements)
** Current wind speed in m/s (hover to see current wind gust speed)